Weather History for Alliance, NE

Change the Weather History Date:

Friday, March 28, 2014

  Actual Average Record
Temperature  
Mean Temperature 37 °F 40 °F  
Max Temperature 50 °F 55 °F 79 °F (1988)
Min Temperature 24 °F 26 °F -7 °F (1931)
Degree Days  
Heating Degree Days 28 25  
Month to date heating degree days 853 810  
Since 1 July heating degree days 6417 6214  
Cooling Degree Days 0 0  
Month to date cooling degree days 0 0  
Year to date cooling degree days 0 0  
Moisture  
Dew Point 25 °F    
Average Humidity 62    
Maximum Humidity 92    
Minimum Humidity 32    
Precipitation  
Precipitation 0.00 in 0.06 in 0.68 in (1918)
Month to date precipitation 0.10 0.67  
Year to date precipitation 1.35 1.23  
Sea Level Pressure  
Sea Level Pressure 29.98 in    
Wind  
Wind Speed 17 mph (WSW)    
Max Wind Speed 33 mph    
Max Gust Speed 41 mph    
Visibility 10 miles    
Events      
T = Trace of Precipitation, MM = Missing Value Source: NWS Daily Summary

Daily Weather History Graph

Daily Weather History Graph

Search for Another Location

Airport:

Trip Planner

Search our weather history database for the weather conditions in past years. The results will help you decide how hot, cold, wet, or windy it might be!

Date:

Astronomy

Mar. 28, 2014 Rise Set
Actual Time 6:40 AM MDT 7:12 PM MDT
Civil Twilight 6:12 AM MDT 7:40 PM MDT
Nautical Twilight 5:39 AM MDT 8:13 PM MDT
Astronomical Twilight 5:05 AM MDT 8:47 PM MDT
Moon 5:15 AM MDT (3/28) 5:09 PM MDT (3/28)
Length of Visible Light 13h 27m
Length of Day
12h 31m
Waning Crescent, 6% of the Moon is Illuminated
Mar 28
Waning Crescent
Mar 30
New
Apr 7
First Quarter
Apr 15
Full
Apr 22
Last Quarter

Hourly Weather History & Observations

Time (MDT) Temp. Windchill Dew Point Humidity Pressure Visibility Wind Dir Wind Speed Gust Speed Precip Events Conditions
12:53 AM 30.0 °F 19.5 °F 26.1 °F 85% 29.86 in 10.0 mi SSE 13.8 mph - N/A   Partly Cloudy
1:22 AM 30.0 °F 19.5 °F 28.0 °F 92% 29.80 in 10.0 mi SSE 13.8 mph - N/A   Mostly Cloudy
1:53 AM 30.9 °F 21.2 °F 28.0 °F 89% 29.85 in 9.0 mi SSE 12.7 mph - N/A   Overcast
2:53 AM 32.0 °F 21.2 °F 30.0 °F 92% 29.82 in 9.0 mi South 16.1 mph - N/A   Overcast
3:53 AM 32.0 °F 21.2 °F 30.0 °F 92% 29.80 in 7.0 mi South 16.1 mph - N/A   Overcast
4:22 AM 30.9 °F 21.7 °F 28.9 °F 92% 29.77 in 6.0 mi South 11.5 mph - N/A   Scattered Clouds
4:53 AM 30.0 °F 21.1 °F 28.9 °F 96% 29.82 in 6.0 mi South 10.4 mph - N/A   Clear
5:53 AM 28.9 °F 21.9 °F 25.0 °F 85% 29.85 in 10.0 mi SW 6.9 mph - N/A   Scattered Clouds
6:53 AM 33.1 °F 23.0 °F 25.0 °F 72% 29.88 in 10.0 mi West 15.0 mph - N/A   Partly Cloudy
7:53 AM 36.0 °F 28.0 °F 27.0 °F 70% 29.92 in 10.0 mi West 11.5 mph - N/A   Partly Cloudy
8:53 AM 41.0 °F 31.6 °F 30.0 °F 65% 29.92 in 10.0 mi West 20.7 mph 28.8 mph N/A   Clear
9:53 AM 45.0 °F 34.9 °F 27.0 °F 49% 29.93 in 10.0 mi WNW 32.2 mph 36.8 mph N/A   Scattered Clouds
10:53 AM 44.1 °F 34.4 °F 27.0 °F 51% 29.96 in 10.0 mi NW 27.6 mph 34.5 mph N/A   Partly Cloudy
11:53 AM 46.9 °F - 26.1 °F 44% 29.98 in 10.0 mi NW 26.5 mph 36.8 mph N/A   Clear
12:53 PM 46.9 °F - 28.0 °F 48% 30.01 in 10.0 mi NNW 23.0 mph 31.1 mph N/A   Clear
1:53 PM 48.0 °F - 26.1 °F 42% 30.01 in 10.0 mi NNW 24.2 mph 33.4 mph N/A   Clear
2:53 PM 48.9 °F - 24.1 °F 38% 30.02 in 10.0 mi NNW 25.3 mph 39.1 mph N/A   Partly Cloudy
3:53 PM 50.0 °F - 21.0 °F 32% 30.04 in 10.0 mi NNW 25.3 mph 35.7 mph N/A   Clear
4:53 PM 48.0 °F - 21.0 °F 34% 30.07 in 10.0 mi NNW 21.9 mph - N/A   Clear
5:53 PM 46.9 °F - 21.0 °F 36% 30.09 in 10.0 mi NNW 19.6 mph - N/A   Clear
6:53 PM 43.0 °F 37.7 °F 21.9 °F 43% 30.12 in 10.0 mi North 9.2 mph - N/A   Clear
7:53 PM 34.0 °F 27.2 °F 21.9 °F 61% 30.15 in 10.0 mi NE 8.1 mph - N/A   Clear
8:53 PM 27.0 °F 18.7 °F 21.9 °F 81% 30.17 in 10.0 mi ESE 8.1 mph - N/A   Clear
9:53 PM 27.0 °F 19.5 °F 23.0 °F 85% 30.18 in 10.0 mi SSE 6.9 mph - N/A   Clear
10:53 PM 25.0 °F 17.1 °F 21.9 °F 88% 30.19 in 10.0 mi SE 6.9 mph - N/A   Clear
11:53 PM 26.1 °F 16.8 °F 23.0 °F 88% 30.18 in 10.0 mi SSE 9.2 mph - N/A   Clear